Terminal Aerodrome Forecast
Issued by NWS Dodge City, KS

Home | Current Version | Previous Version | Graphics & Text | Print | Product List | Glossary Off
Versions: 1 2 3 4 5 6 7 8 9 10 11 12 13 14 15 16

000
FTUS43 KDDC 182300
TAFDDC
TAF
KDDC 182320Z 1900/1924 18020G25KT P6SM SKC
     FM190200 17015G24KT P6SM SCT250
     FM191500 19024G34KT P6SM BKN250=

USA.gov is the U.S. government's official web portal to all federal, state and local government web resources and services.